Flag for Norway Weather past 2 weeks in Drammen, Norway

Now
37 °F

Broken clouds.


Feels Like: 25 °F
Forecast: 17 / 25 °F
Wind: 30 mph from Northwest

Location: Oslo / Fornebu

Current Time: Feb 1, 2015 at 3:17:29 PM

Latest Report: Feb 1, 2015 at 2:50 PM


Visibility: N/A

Pressure: 29.27 "Hg

Humidity: 81%

Dew point: 32 °F

Location of DrammenLocation

Historic Weather in Drammen — Graph

°F

Drammen temperature yesterday

Maximum temperature yesterday: 43 °F (at 10:20 PM)
Minimum temperature yesterday: 36 °F (at 5:50 AM)
Average temperature yesterday: 39 °F

Past Weeks' High & Low Weather Summary

 TemperatureHumidityPressure
High48 °F (Jan 25, 6:20 PM)100% (Jan 23, 5:50 PM)30.15 "Hg (Jan 23, 5:50 PM)
Low34 °F (Feb 1, 7:50 AM)45% (Feb 1, 3:20 AM)28.23 "Hg (Jan 29, 3:20 PM)
Average42 °F77%29.45 "Hg
* Reported Jan 17 1:20 PM — Feb 1 1:50 PM, Drammen, Weather by CustomWeather, © 2014

Note: Actual official high and low records may vary slightly from our data, if they occured in-between our weather recording intervals... More about our weather records

Advertising

Drammen weather history for previous 24 hours

 ConditionsComfort  
Time TempWeatherWind HumidityBarometerVisibility
1:50 PM
Feb 1
36 °FSnow flurries. Partly sunny.26 mph87%29.27 "Hg2 mi
1:20 PM37 °FPartly sunny.29 mph87%29.27 "HgN/A
12:50 PM37 °FPartly sunny.31 mph87%29.27 "HgN/A
12:20 PM39 °FPartly sunny.28 mph75%29.30 "HgN/A
11:50 AM39 °FSprinkles. Partly sunny.26 mph75%29.30 "HgN/A
11:20 AM39 °FSprinkles. Partly sunny.28 mph70%29.30 "HgN/A
10:50 AM39 °FSprinkles. Broken clouds.30 mph75%29.30 "HgN/A
10:20 AM39 °FBroken clouds.28 mph65%29.30 "HgN/A
9:50 AM39 °FPartly sunny.28 mph75%29.30 "HgN/A
9:20 AM37 °FSprinkles. Partly sunny.30 mph81%29.30 "HgN/A
8:50 AM36 °FSprinkles. Partly sunny.32 mph93%29.30 "HgN/A
8:20 AM36 °FSprinkles. Passing clouds.23 mph93%29.30 "HgN/A
7:50 AM34 °FLight rain. Passing clouds.26 mph93%29.30 "HgN/A
7:20 AM37 °FPartly cloudy.32 mph87%29.30 "HgN/A
6:50 AM39 °FPassing clouds.30 mph81%29.27 "HgN/A
6:20 AM39 °FPassing clouds.32 mph75%29.27 "HgN/A
5:50 AM39 °FSprinkles. Passing clouds.33 mph81%29.27 "HgN/A
5:20 AM41 °FPassing clouds.33 mph76%29.27 "HgN/A
4:50 AM41 °FSprinkles. Passing clouds.29 mph76%29.27 "HgN/A
3:50 AM43 °FPassing clouds.33 mph49%29.24 "HgN/A
3:20 AM41 °FPassing clouds.36 mph45%29.24 "HgN/A
2:50 AM41 °FPassing clouds.33 mph57%29.24 "HgN/A
2:20 AM41 °FPassing clouds.35 mph57%29.24 "HgN/A
1:50 AM41 °FPassing clouds.35 mph57%29.24 "HgN/A
1:20 AM41 °FPassing clouds.33 mph61%29.24 "HgN/A
12:50 AM41 °FPassing clouds.35 mph57%29.21 "HgN/A
12:20 AM41 °FPassing clouds.36 mph61%29.21 "HgN/A
11:50 PM
Jan 31
41 °FPassing clouds.37 mph57%29.21 "HgN/A
11:20 PM41 °FPassing clouds.36 mph57%29.18 "HgN/A
10:50 PM41 °FSprinkles. Passing clouds.33 mph76%29.18 "HgN/A
10:20 PM43 °FPartly cloudy.30 mph71%29.18 "HgN/A
9:20 PM39 °FPassing clouds.14 mph81%29.18 "HgN/A
8:50 PM39 °FSprinkles. Partly cloudy.18 mph81%29.18 "HgN/A
8:20 PM39 °FPassing clouds.17 mph87%29.15 "HgN/A
7:50 PM37 °FRain. Passing clouds.13 mph87%29.15 "HgN/A
7:20 PM41 °FPartly cloudy.16 mph81%29.15 "HgN/A
6:50 PM39 °FPartly cloudy.17 mph81%29.15 "HgN/A
6:20 PM37 °FPassing clouds.13 mph87%29.12 "HgN/A
5:50 PM39 °FLight rain. Passing clouds.17 mph81%29.12 "Hg2 mi
5:20 PM39 °FPassing clouds.17 mph81%29.09 "HgN/A
4:50 PM41 °FSprinkles. Passing clouds.17 mph81%29.09 "HgN/A
4:20 PM41 °FDrizzle. Partly sunny.16 mph76%29.06 "HgN/A
3:50 PM39 °FScattered clouds.15 mph81%29.06 "HgN/A
3:20 PM39 °FPassing clouds.15 mph81%29.06 "HgN/A
Weather by CustomWeather, © 2014

See weather overviewHow to use our weather pages